| time (UTC) | temp F | wind direction | speed knots | gust knots | rain 1hr in | rain 24hr in | rain mn in | humidity % | barometer mb |
| 20260906130819 | 71 | 51 | 1.7 | 2.6 | 0.00 | 0.00 | 0.00 | 95 | 1018.2 |
| 20260906130318 | 71 | 90 | 2.6 | 3.5 | 0.00 | 0.00 | 0.00 | 95 | 1017.9 |
| 20260906125818 | 71 | 59 | 2.6 | 3.5 | 0.00 | 0.00 | 0.00 | 95 | 1018.0 |
| 20260906125315 | 70 | 31 | 1.7 | 3.5 | 0.00 | 0.00 | 0.00 | 95 | 1018.1 |
| 20260906124809 | 71 | 61 | 2.6 | 7.0 | 0.00 | 0.00 | 0.00 | 95 | 1018.0 |
| 20260906124306 | 71 | 65 | 1.7 | 3.5 | 0.00 | 0.00 | 0.00 | 95 | 1017.9 |
| 20260906123804 | 71 | 56 | 3.5 | 5.2 | 0.00 | 0.00 | 0.00 | 95 | 1017.9 |
| 20260906123259 | 70 | 47 | 1.7 | 2.6 | 0.00 | 0.00 | 0.00 | 95 | 1017.8 |
| 20260906122759 | 70 | 14 | 1.7 | 3.5 | 0.00 | 0.00 | 0.00 | 95 | 1017.7 |
| 20260906122254 | 70 | 42 | 1.7 | 5.2 | 0.00 | 0.00 | 0.00 | 95 | 1017.7 |
| 20260906121751 | 70 | 17 | 3.5 | 3.5 | 0.00 | 0.00 | 0.00 | 95 | 1017.9 |
| 20260906121247 | 70 | 19 | 0.9 | 3.5 | 0.00 | 0.00 | 0.00 | 95 | 1017.8 |
| 20260906120742 | 70 | 66 | 3.5 | 3.5 | 0.00 | 0.00 | 0.00 | 95 | 1017.8 |
| 20260906120239 | 70 | 53 | 2.6 | 7.0 | 0.00 | 0.00 | 0.00 | 95 | 1017.9 |
| 20260906115735 | 70 | 34 | 1.7 | 3.5 | 0.00 | 0.00 | 0.00 | 95 | 1017.6 |
| 20260906115230 | 70 | 56 | 2.6 | 5.2 | 0.00 | 0.00 | 0.00 | 95 | 1017.4 |
| 20260906114728 | 70 | 43 | 2.6 | 2.6 | 0.00 | 0.00 | 0.00 | 95 | 1017.4 |
| 20260906114224 | 70 | 32 | 1.7 | 6.1 | 0.00 | 0.00 | 0.00 | 95 | 1017.1 |
| 20260906113719 | 70 | 53 | 1.7 | 5.2 | 0.00 | 0.00 | 0.00 | 95 | 1017.1 |
| 20260906113218 | 70 | 15 | 3.5 | 5.2 | 0.00 | 0.00 | 0.00 | 95 | 1017.2 |
| 20260906112712 | 70 | 24 | 0.9 | 3.5 | 0.00 | 0.00 | 0.00 | 95 | 1017.1 |
| 20260906112210 | 70 | 42 | 1.7 | 3.5 | 0.00 | 0.00 | 0.00 | 95 | 1016.9 |
| 20260906111709 | 70 | 65 | 1.7 | 5.2 | 0.00 | 0.00 | 0.00 | 95 | 1016.9 |
| 20260906111204 | 70 | 30 | 1.7 | 3.5 | 0.00 | 0.00 | 0.00 | 94 | 1016.6 |
| 20260906110658 | 70 | 50 | 2.6 | 5.2 | 0.00 | 0.00 | 0.00 | 94 | 1016.8 |
| 20260906110154 | 71 | 15 | 2.6 | 2.6 | 0.00 | 0.00 | 0.00 | 94 | 1016.7 |
| 20260906105647 | 71 | 24 | 1.7 | 2.6 | 0.00 | 0.00 | 0.00 | 93 | 1016.6 |
| 20260906105144 | 71 | 48 | 0.9 | 5.2 | 0.00 | 0.00 | 0.00 | 93 | 1016.5 |
| 20260906104643 | 71 | 19 | 0.9 | 2.6 | 0.00 | 0.00 | 0.00 | 93 | 1016.5 |
| 20260906104142 | 71 | 43 | 2.6 | 3.5 | 0.00 | 0.00 | 0.00 | 93 | 1016.7 |
| 20260906103641 | 71 | 41 | 2.6 | 2.6 | 0.00 | 0.00 | 0.00 | 92 | 1016.6 |
| 20260906103136 | 71 | 38 | 2.6 | 2.6 | 0.00 | 0.00 | 0.00 | 92 | 1016.5 |
| 20260906102631 | 71 | 46 | 0.9 | 2.6 | 0.00 | 0.00 | 0.00 | 92 | 1016.5 |
| 20260906102131 | 71 | 351 | 0.9 | 1.7 | 0.00 | 0.00 | 0.00 | 92 | 1016.7 |
| 20260906101631 | 72 | 32 | 0.9 | 3.5 | 0.00 | 0.00 | 0.00 | 92 | 1016.5 |
| 20260906101126 | 72 | 40 | 0.0 | 2.6 | 0.00 | 0.00 | 0.00 | 92 | 1016.5 |
| 20260906100621 | 72 | 39 | 0.9 | 1.7 | 0.00 | 0.00 | 0.00 | 91 | 1016.1 |
| 20260906100116 | 72 | 77 | 1.7 | 2.6 | 0.00 | 0.00 | 0.00 | 91 | 1016.2 |
| 20260906095615 | 72 | 60 | 2.6 | 3.5 | 0.00 | 0.00 | 0.00 | 91 | 1016.0 |
| 20260906095111 | 72 | 50 | 0.9 | 1.7 | 0.00 | 0.00 | 0.00 | 91 | 1016.0 |
| 20260906094610 | 72 | 4 | 2.6 | 2.6 | 0.00 | 0.00 | 0.00 | 90 | 1016.1 |
| 20260906094106 | 73 | 60 | 2.6 | 2.6 | 0.00 | 0.00 | 0.00 | 90 | 1016.4 |
| 20260906093602 | 73 | 65 | 1.7 | 3.5 | 0.00 | 0.00 | 0.00 | 90 | 1016.1 |
| 20260906093057 | 73 | 31 | 1.7 | 1.7 | 0.00 | 0.00 | 0.00 | 90 | 1016.2 |
| 20260906092552 | 73 | 44 | 0.9 | 2.6 | 0.00 | 0.00 | 0.00 | 90 | 1016.1 |
| 20260906092047 | 73 | 66 | 1.7 | 3.5 | 0.00 | 0.00 | 0.00 | 90 | 1016.2 |
| 20260906091542 | 73 | 15 | 1.7 | 3.5 | 0.00 | 0.00 | 0.00 | 90 | 1016.0 |
| 20260906091039 | 74 | 39 | 0.0 | 2.6 | 0.00 | 0.00 | 0.00 | 90 | 1016.1 |
| 20260906090539 | 74 | 60 | 1.7 | 2.6 | 0.00 | 0.00 | 0.00 | 90 | 1016.0 |
| 20260906090039 | 74 | 17 | 0.9 | 2.6 | 0.00 | 0.00 | 0.00 | 90 | 1016.1 |
| 20260906085538 | 74 | 35 | 2.6 | 3.5 | 0.00 | 0.00 | 0.00 | 89 | 1016.0 |
| 20260906085038 | 74 | 30 | 3.5 | 6.1 | 0.00 | 0.00 | 0.00 | 89 | 1015.9 |
| 20260906084533 | 75 | 38 | 3.5 | 5.2 | 0.00 | 0.00 | 0.00 | 88 | 1015.7 |
| 20260906084031 | 75 | 51 | 1.7 | 5.2 | 0.00 | 0.00 | 0.00 | 87 | 1015.6 |
| 20260906083527 | 76 | 43 | 0.9 | 2.6 | 0.00 | 0.00 | 0.00 | 86 | 1015.7 |
| 20260906083027 | 76 | 37 | 1.7 | 2.6 | 0.00 | 0.00 | 0.00 | 85 | 1015.7 |
| 20260906082522 | 76 | 50 | 2.6 | 7.0 | 0.00 | 0.00 | 0.00 | 85 | 1015.7 |
| 20260906082018 | 76 | 60 | 1.7 | 3.5 | 0.00 | 0.00 | 0.00 | 85 | 1015.8 |
| 20260906081514 | 76 | 74 | 2.6 | 3.5 | 0.00 | 0.00 | 0.00 | 85 | 1015.7 |
| 20260906081009 | 76 | 56 | 1.7 | 3.5 | 0.00 | 0.00 | 0.00 | 84 | 1015.7 |
| 20260906080506 | 76 | 31 | 0.9 | 2.6 | 0.00 | 0.00 | 0.00 | 85 | 1015.7 |
| 20260906080001 | 76 | 62 | 0.9 | 3.5 | 0.00 | 0.00 | 0.00 | 85 | 1015.8 |
| 20260906075456 | 76 | 59 | 1.7 | 6.1 | 0.00 | 0.00 | 0.00 | 85 | 1015.7 |
| 20260906074951 | 76 | 55 | 0.9 | 1.7 | 0.00 | 0.00 | 0.00 | 85 | 1015.7 |
| 20260906074450 | 77 | 22 | 0.9 | 2.6 | 0.00 | 0.00 | 0.00 | 85 | 1015.9 |
| 20260906073949 | 77 | 27 | 1.7 | 2.6 | 0.00 | 0.00 | 0.00 | 84 | 1015.8 |
| 20260906073444 | 77 | 30 | 1.7 | 3.5 | 0.00 | 0.00 | 0.00 | 85 | 1015.8 |
| 20260906072940 | 77 | 59 | 1.7 | 2.6 | 0.00 | 0.00 | 0.00 | 86 | 1015.8 |
| 20260906072435 | 77 | 54 | 0.9 | 1.7 | 0.00 | 0.00 | 0.00 | 85 | 1015.8 |
| 20260906071931 | 78 | 34 | 0.0 | 0.9 | 0.00 | 0.00 | 0.00 | 84 | 1015.7 |
| 20260906071427 | 78 | 24 | 0.9 | 1.7 | 0.00 | 0.00 | 0.00 | 83 | 1015.9 |
| 20260906070923 | 78 | 38 | 1.7 | 2.6 | 0.00 | 0.00 | 0.00 | 82 | 1015.6 |
| 20260906070419 | 78 | 49 | 0.0 | 2.6 | 0.00 | 0.00 | 0.00 | 81 | 1015.7 |
| 20260906065915 | 78 | 71 | 0.9 | 2.6 | 0.00 | 0.00 | 0.00 | 81 | 1015.6 |
| 20260906065408 | 78 | 61 | 3.5 | 5.2 | 0.00 | 0.00 | 0.00 | 81 | 1015.6 |
| 20260906064905 | 78 | 85 | 1.7 | 1.7 | 0.00 | 0.00 | 0.00 | 83 | 1015.7 |
| 20260906064401 | 78 | 96 | 0.0 | 2.6 | 0.00 | 0.00 | 0.00 | 83 | 1015.7 |
| 20260906063900 | 78 | 86 | 0.9 | 1.7 | 0.00 | 0.00 | 0.00 | 84 | 1015.6 |
| 20260906063355 | 78 | 72 | 0.9 | 1.7 | 0.00 | 0.00 | 0.00 | 84 | 1015.7 |
| 20260906062850 | 79 | 62 | 0.9 | 1.7 | 0.00 | 0.00 | 0.00 | 83 | 1015.7 |
| 20260906062349 | 79 | 34 | 0.9 | 2.6 | 0.00 | 0.00 | 0.00 | 83 | 1015.9 |
| 20260906061845 | 79 | 102 | 1.7 | 2.6 | 0.00 | 0.00 | 0.00 | 83 | 1015.7 |
| 20260906061342 | 80 | 94 | 3.5 | 7.0 | 0.00 | 0.00 | 0.00 | 82 | 1015.8 |
| 20260906060836 | 80 | 94 | 2.6 | 6.1 | 0.00 | 0.00 | 0.00 | 84 | 1015.8 |
| 20260906060334 | 80 | 91 | 3.5 | 5.2 | 0.00 | 0.00 | 0.00 | 84 | 1015.7 |
| 20260906055829 | 80 | 75 | 2.6 | 3.5 | 0.00 | 0.00 | 0.00 | 85 | 1015.8 |
| 20260906055325 | 80 | 116 | 0.9 | 5.2 | 0.00 | 0.00 | 0.00 | 85 | 1015.9 |
| 20260906054820 | 81 | 74 | 0.9 | 1.7 | 0.00 | 0.00 | 0.00 | 84 | 1016.0 |
| 20260906054315 | 81 | 95 | 0.0 | 0.9 | 0.00 | 0.00 | 0.00 | 83 | 1016.0 |
| 20260906053812 | 81 | 56 | 0.9 | 2.6 | 0.00 | 0.00 | 0.00 | 83 | 1015.8 |
| 20260906053307 | 81 | 159 | 0.9 | 1.7 | 0.00 | 0.00 | 0.00 | 83 | 1015.6 |
| 20260906052802 | 81 | 87 | 2.6 | 5.2 | 0.00 | 0.00 | 0.00 | 82 | 1015.9 |
| 20260906052258 | 82 | 59 | 4.3 | 6.1 | 0.00 | 0.00 | 0.00 | 82 | 1015.7 |
| 20260906051755 | 82 | 106 | 1.7 | 3.5 | 0.00 | 0.00 | 0.00 | 81 | 1015.8 |
| 20260906051254 | 82 | 74 | 1.7 | 2.6 | 0.00 | 0.00 | 0.00 | 81 | 1015.7 |
| 20260906050750 | 82 | 70 | 3.5 | 6.1 | 0.00 | 0.00 | 0.00 | 81 | 1015.6 |
| 20260906050245 | 82 | 67 | 1.7 | 3.5 | 0.00 | 0.00 | 0.00 | 81 | 1015.7 |
| 20260906045744 | 82 | 23 | 0.9 | 5.2 | 0.00 | 0.00 | 0.00 | 81 | 1015.7 |
| 20260906045238 | 82 | 74 | 0.9 | 3.5 | 0.00 | 0.00 | 0.00 | 81 | 1015.6 |
| 20260906044734 | 82 | 22 | 0.9 | 2.6 | 0.00 | 0.00 | 0.00 | 81 | 1015.5 |
| 20260906044229 | 82 | 32 | 0.9 | 2.6 | 0.00 | 0.00 | 0.00 | 80 | 1015.2 |
| 20260906043726 | 82 | 73 | 3.5 | 3.5 | 0.00 | 0.00 | 0.00 | 80 | 1015.4 |
| 20260906043221 | 82 | 59 | 1.7 | 2.6 | 0.00 | 0.00 | 0.00 | 80 | 1015.3 |
| 20260906042721 | 82 | 32 | 0.9 | 1.7 | 0.00 | 0.00 | 0.00 | 80 | 1015.3 |
| 20260906042220 | 82 | 23 | 0.9 | 0.9 | 0.00 | 0.00 | 0.00 | 79 | 1015.0 |
| 20260906041716 | 82 | 35 | 0.9 | 1.7 | 0.00 | 0.00 | 0.00 | 78 | 1015.1 |
| 20260906041211 | 82 | 44 | 1.7 | 1.7 | 0.00 | 0.00 | 0.00 | 78 | 1015.0 |
| 20260906040707 | 82 | 29 | 1.7 | 5.2 | 0.00 | 0.00 | 0.00 | 78 | 1015.2 |
| 20260906040202 | 82 | 358 | 1.7 | 1.7 | 0.00 | 0.00 | 0.00 | 77 | 1015.0 |
| 20260906035657 | 82 | 59 | 0.9 | 1.7 | 0.00 | 0.00 | 0.00 | 77 | 1014.9 |
| 20260906035153 | 82 | 16 | 1.7 | 1.7 | 0.00 | 0.00 | 0.00 | 77 | 1014.7 |
| 20260906034653 | 82 | 46 | 0.9 | 3.5 | 0.00 | 0.00 | 0.00 | 76 | 1014.7 |
| 20260906034147 | 82 | 51 | 1.7 | 2.6 | 0.00 | 0.00 | 0.00 | 76 | 1014.8 |
| 20260906033644 | 82 | 76 | 1.7 | 1.7 | 0.00 | 0.00 | 0.00 | 76 | 1014.8 |
| 20260906033143 | 83 | 19 | 0.9 | 1.7 | 0.00 | 0.00 | 0.00 | 75 | 1014.9 |
| 20260906032640 | 83 | 21 | 0.9 | 2.6 | 0.00 | 0.00 | 0.00 | 74 | 1014.8 |
| 20260906032140 | 83 | 33 | 0.9 | 1.7 | 0.00 | 0.00 | 0.00 | 75 | 1014.7 |
| 20260906031635 | 82 | 41 | 0.9 | 3.5 | 0.00 | 0.00 | 0.00 | 75 | 1014.6 |
| 20260906031131 | 82 | 51 | 0.0 | 1.7 | 0.00 | 0.00 | 0.00 | 75 | 1014.7 |
| 20260906030630 | 81 | 35 | 0.9 | 0.9 | 0.00 | 0.00 | 0.00 | 76 | 1014.9 |
| 20260906030125 | 81 | 31 | 0.0 | 0.0 | 0.00 | 0.00 | 0.00 | 78 | 1014.6 |
| 20260906025624 | 81 | 32 | 0.0 | 0.0 | 0.00 | 0.00 | 0.00 | 77 | 1014.7 |
| 20260906025123 | 80 | 36 | 0.0 | 0.9 | 0.00 | 0.00 | 0.00 | 77 | 1014.6 |
| 20260906024618 | 81 | 36 | 0.0 | 0.0 | 0.00 | 0.00 | 0.00 | 77 | 1014.7 |
| 20260906024113 | 81 | 29 | 0.0 | 0.0 | 0.00 | 0.00 | 0.00 | 76 | 1014.7 |
| 20260906023609 | 81 | 24 | 0.0 | 0.9 | 0.00 | 0.00 | 0.00 | 75 | 1014.4 |
| 20260906023109 | 81 | 27 | 0.0 | 0.0 | 0.00 | 0.00 | 0.00 | 74 | 1014.4 |
| 20260906022604 | 82 | 11 | 0.9 | 0.9 | 0.00 | 0.00 | 0.00 | 75 | 1014.3 |
| 20260906022100 | 82 | 39 | 0.9 | 0.9 | 0.00 | 0.00 | 0.00 | 73 | 1014.1 |
| 20260906021555 | 82 | 21 | 0.0 | 0.0 | 0.00 | 0.00 | 0.00 | 73 | 1014.0 |
| 20260906021054 | 82 | 35 | 0.0 | 0.0 | 0.00 | 0.00 | 0.00 | 73 | 1014.2 |
| 20260906020549 | 82 | 28 | 0.0 | 0.0 | 0.00 | 0.00 | 0.00 | 73 | 1013.9 |
| 20260906020048 | 82 | 42 | 0.0 | 0.0 | 0.00 | 0.00 | 0.00 | 72 | 1013.9 |
| 20260906015547 | 83 | 32 | 0.0 | 0.0 | 0.00 | 0.00 | 0.00 | 70 | 1013.9 |
| 20260906015042 | 83 | 30 | 0.0 | 0.0 | 0.00 | 0.00 | 0.00 | 69 | 1013.8 |
| 20260906014542 | 83 | 32 | 0.0 | 0.0 | 0.00 | 0.00 | 0.00 | 69 | 1013.8 |
| 20260906014038 | 83 | 29 | 0.0 | 0.9 | 0.00 | 0.00 | 0.00 | 69 | 1013.6 |
| 20260906013533 | 84 | 31 | 0.0 | 0.0 | 0.00 | 0.00 | 0.00 | 67 | 1013.7 |
| 20260906013028 | 84 | 25 | 0.0 | 0.9 | 0.00 | 0.00 | 0.00 | 66 | 1013.5 |
| 20260906012523 | 85 | 35 | 0.0 | 0.0 | 0.00 | 0.00 | 0.00 | 65 | 1013.5 |
| 20260906012023 | 85 | 23 | 0.9 | 0.9 | 0.00 | 0.00 | 0.00 | 64 | 1013.5 |
| 20260906011519 | 85 | 40 | 0.0 | 0.9 | 0.00 | 0.00 | 0.00 | 64 | 1013.3 |
| 20260906011019 | 85 | 39 | 0.9 | 1.7 | 0.00 | 0.00 | 0.00 | 63 | 1013.4 |
| 20260906010515 | 85 | 49 | 0.9 | 1.7 | 0.00 | 0.00 | 0.00 | 63 | 1013.3 |
| 20260906010011 | 84 | 34 | 0.0 | 0.9 | 0.00 | 0.00 | 0.00 | 64 | 1013.4 |
| 20260906005510 | 84 | 28 | 0.9 | 0.9 | 0.00 | 0.00 | 0.00 | 65 | 1013.2 |
| 20260906005009 | 85 | 34 | 0.0 | 0.9 | 0.00 | 0.00 | 0.00 | 64 | 1013.2 |
| 20260906004508 | 85 | 34 | 0.0 | 0.0 | 0.00 | 0.00 | 0.00 | 63 | 1013.0 |
| 20260906004003 | 86 | 34 | 0.0 | 0.0 | 0.00 | 0.00 | 0.00 | 61 | 1013.0 |
| 20260906003459 | 86 | 35 | 0.0 | 0.0 | 0.00 | 0.00 | 0.00 | 61 | 1013.0 |
| 20260906002954 | 87 | 34 | 0.0 | 0.9 | 0.00 | 0.00 | 0.00 | 59 | 1013.1 |
| 20260906002454 | 87 | 25 | 0.0 | 0.0 | 0.00 | 0.00 | 0.00 | 58 | 1013.1 |
| 20260906001949 | 88 | 29 | 0.0 | 0.0 | 0.00 | 0.00 | 0.00 | 57 | 1013.3 |
| 20260906001445 | 88 | 42 | 0.0 | 0.0 | 0.00 | 0.00 | 0.00 | 56 | 1013.2 |
| 20260906000940 | 88 | 28 | 0.0 | 0.0 | 0.00 | 0.00 | 0.00 | 57 | 1013.4 |
| 20260906000436 | 89 | 21 | 0.0 | 0.0 | 0.00 | 0.00 | 0.00 | 55 | 1013.3 |
| 20260905235930 | 89 | 26 | 0.9 | 0.9 | 0.00 | 0.00 | 0.00 | 54 | 1013.1 |
| 20260905235430 | 89 | 26 | 0.9 | 0.9 | 0.00 | 0.00 | 0.00 | 53 | 1013.3 |
| 20260905234925 | 89 | 51 | 0.0 | 0.0 | 0.00 | 0.00 | 0.00 | 52 | 1013.4 |
| 20260905234421 | 90 | 43 | 0.9 | 0.9 | 0.00 | 0.00 | 0.00 | 51 | 1013.3 |
| 20260905233920 | 90 | 49 | 0.9 | 0.9 | 0.00 | 0.00 | 0.00 | 51 | 1013.4 |
| 20260905233416 | 90 | 34 | 0.0 | 0.9 | 0.00 | 0.00 | 0.00 | 51 | 1013.3 |
| 20260905232915 | 91 | 38 | 0.9 | 0.9 | 0.00 | 0.00 | 0.00 | 49 | 1013.3 |
| 20260905232411 | 91 | 27 | 0.0 | 0.9 | 0.00 | 0.00 | 0.00 | 50 | 1013.3 |
| 20260905231906 | 91 | 55 | 0.0 | 1.7 | 0.00 | 0.00 | 0.00 | 50 | 1013.1 |
| 20260905231402 | 91 | 51 | 0.9 | 2.6 | 0.00 | 0.00 | 0.00 | 49 | 1013.3 |
| 20260905230859 | 91 | 18 | 1.7 | 5.2 | 0.00 | 0.00 | 0.00 | 49 | 1013.3 |
| 20260905230356 | 92 | 98 | 1.7 | 3.5 | 0.00 | 0.00 | 0.00 | 50 | 1013.5 |
| 20260905225850 | 92 | 32 | 1.7 | 6.1 | 0.00 | 0.00 | 0.00 | 50 | 1013.6 |
| 20260905225344 | 93 | 31 | 4.3 | 7.8 | 0.00 | 0.00 | 0.00 | 49 | 1013.5 |
| 20260905224839 | 94 | 42 | 4.3 | 7.8 | 0.00 | 0.00 | 0.00 | 49 | 1013.4 |
| 20260905224335 | 95 | 43 | 4.3 | 8.7 | 0.00 | 0.00 | 0.00 | 49 | 1013.4 |
| 20260905223830 | 96 | 24 | 0.9 | 6.1 | 0.00 | 0.00 | 0.00 | 48 | 1013.1 |
| 20260905223328 | 97 | 14 | 5.2 | 8.7 | 0.00 | 0.00 | 0.00 | 45 | 1013.1 |
| 20260905222823 | 97 | 50 | 1.7 | 3.5 | 0.00 | 0.00 | 0.00 | 44 | 1013.2 |
| 20260905222321 | 97 | 38 | 1.7 | 5.2 | 0.00 | 0.00 | 0.00 | 43 | 1013.2 |
| 20260905221817 | 98 | 28 | 1.7 | 3.5 | 0.00 | 0.00 | 0.00 | 42 | 1013.2 |
| 20260905221314 | 98 | 44 | 2.6 | 5.2 | 0.00 | 0.00 | 0.00 | 42 | 1013.1 |
| 20260905220809 | 99 | 16 | 2.6 | 6.1 | 0.00 | 0.00 | 0.00 | 41 | 1013.1 |
| 20260905220306 | 99 | 8 | 2.6 | 5.2 | 0.00 | 0.00 | 0.00 | 41 | 1013.1 |
| 20260905215804 | 98 | 31 | 0.9 | 2.6 | 0.00 | 0.00 | 0.00 | 43 | 1013.0 |
| 20260905215300 | 98 | 7 | 3.5 | 5.2 | 0.00 | 0.00 | 0.00 | 42 | 1013.0 |
| 20260905214756 | 98 | 55 | 0.9 | 3.5 | 0.00 | 0.00 | 0.00 | 43 | 1012.8 |
| 20260905214252 | 98 | 73 | 3.5 | 5.2 | 0.00 | 0.00 | 0.00 | 43 | 1012.9 |
| 20260905213747 | 98 | 72 | 3.5 | 7.0 | 0.00 | 0.00 | 0.00 | 43 | 1012.9 |
| 20260905213243 | 98 | 357 | 4.3 | 7.0 | 0.00 | 0.00 | 0.00 | 43 | 1012.7 |
| 20260905212738 | 98 | 51 | 4.3 | 7.8 | 0.00 | 0.00 | 0.00 | 43 | 1013.0 |
| 20260905212237 | 99 | 58 | 3.5 | 7.8 | 0.00 | 0.00 | 0.00 | 43 | 1013.0 |
| 20260905211737 | 99 | 33 | 3.5 | 7.8 | 0.00 | 0.00 | 0.00 | 43 | 1013.1 |
| 20260905211232 | 99 | 20 | 2.6 | 5.2 | 0.00 | 0.00 | 0.00 | 43 | 1013.0 |
| 20260905210729 | 101 | 30 | 3.5 | 7.0 | 0.00 | 0.00 | 0.00 | 41 | 1013.2 |
| 20260905210228 | 101 | 282 | 2.6 | 3.5 | 0.00 | 0.00 | 0.00 | 40 | 1012.9 |
| 20260905205727 | 100 | 337 | 1.7 | 2.6 | 0.00 | 0.00 | 0.00 | 41 | 1013.1 |
| 20260905205222 | 100 | 25 | 2.6 | 3.5 | 0.00 | 0.00 | 0.00 | 41 | 1013.4 |
| 20260905204722 | 99 | 51 | 0.9 | 1.7 | 0.00 | 0.00 | 0.00 | 42 | 1013.0 |
| 20260905204218 | 99 | 25 | 1.7 | 3.5 | 0.00 | 0.00 | 0.00 | 41 | 1013.4 |
| 20260905203711 | 100 | 14 | 0.9 | 3.5 | 0.00 | 0.00 | 0.00 | 40 | 1013.3 |
| 20260905203207 | 102 | 49 | 4.3 | 7.0 | 0.00 | 0.00 | 0.00 | 38 | 1013.1 |
| 20260905202703 | 102 | 22 | 3.5 | 6.1 | 0.00 | 0.00 | 0.00 | 38 | 1013.0 |
| 20260905202157 | 101 | 64 | 0.9 | 5.2 | 0.00 | 0.00 | 0.00 | 38 | 1013.4 |
| 20260905201653 | 102 | 9 | 3.5 | 5.2 | 0.00 | 0.00 | 0.00 | 38 | 1013.4 |
| 20260905201153 | 102 | 298 | 0.9 | 3.5 | 0.00 | 0.00 | 0.00 | 39 | 1013.3 |
| 20260905200648 | 102 | 276 | 1.7 | 6.1 | 0.00 | 0.00 | 0.00 | 40 | 1013.4 |
| 20260905200144 | 102 | 74 | 0.9 | 5.2 | 0.00 | 0.00 | 0.00 | 39 | 1013.6 |
| 20260905195642 | 102 | 240 | 2.6 | 5.2 | 0.00 | 0.00 | 0.00 | 38 | 1013.8 |
| 20260905195137 | 101 | 322 | 1.7 | 7.0 | 0.00 | 0.00 | 0.00 | 40 | 1013.6 |
| 20260905194632 | 101 | 216 | 1.7 | 5.2 | 0.00 | 0.00 | 0.00 | 39 | 1013.8 |
| 20260905194131 | 101 | 352 | 1.7 | 6.1 | 0.00 | 0.00 | 0.00 | 41 | 1013.7 |
| 20260905193627 | 102 | 14 | 1.7 | 3.5 | 0.00 | 0.00 | 0.00 | 39 | 1013.6 |
| 20260905193127 | 102 | 336 | 3.5 | 7.0 | 0.00 | 0.00 | 0.00 | 39 | 1013.8 |
| 20260905192622 | 101 | 23 | 1.7 | 3.5 | 0.00 | 0.00 | 0.00 | 39 | 1014.0 |
| 20260905192119 | 101 | 47 | 1.7 | 5.2 | 0.00 | 0.00 | 0.00 | 38 | 1014.1 |
| 20260905191618 | 101 | 225 | 0.9 | 6.1 | 0.00 | 0.00 | 0.00 | 38 | 1014.3 |
| 20260905191116 | 102 | 218 | 2.6 | 5.2 | 0.00 | 0.00 | 0.00 | 38 | 1014.3 |
| 20260905190615 | 101 | 258 | 2.6 | 7.0 | 0.00 | 0.00 | 0.00 | 40 | 1014.3 |
| 20260905190114 | 102 | 10 | 2.6 | 5.2 | 0.00 | 0.00 | 0.00 | 37 | 1014.2 |
| 20260905185613 | 101 | 293 | 3.5 | 3.5 | 0.00 | 0.00 | 0.00 | 41 | 1014.5 |
| 20260905185108 | 101 | 202 | 4.3 | 6.1 | 0.00 | 0.00 | 0.00 | 40 | 1014.2 |
| 20260905184602 | 101 | 317 | 0.9 | 3.5 | 0.00 | 0.00 | 0.00 | 42 | 1014.5 |
| 20260905184101 | 100 | 21 | 1.7 | 7.0 | 0.00 | 0.00 | 0.00 | 43 | 1014.5 |
| 20260905183601 | 100 | 44 | 0.9 | 3.5 | 0.00 | 0.00 | 0.00 | 44 | 1014.5 |
| 20260905183057 | 100 | 10 | 1.7 | 5.2 | 0.00 | 0.00 | 0.00 | 43 | 1014.6 |
| 20260905182556 | 100 | 356 | 3.5 | 6.1 | 0.00 | 0.00 | 0.00 | 43 | 1014.8 |
| 20260905182051 | 100 | 266 | 5.2 | 7.0 | 0.00 | 0.00 | 0.00 | 43 | 1014.9 |
| 20260905181550 | 100 | 213 | 2.6 | 5.2 | 0.00 | 0.00 | 0.00 | 44 | 1015.0 |
| 20260905181044 | 100 | 326 | 2.6 | 2.6 | 0.00 | 0.00 | 0.00 | 44 | 1015.0 |
| 20260905180544 | 99 | 327 | 0.0 | 2.6 | 0.00 | 0.00 | 0.00 | 46 | 1014.9 |
| 20260905180040 | 100 | 248 | 2.6 | 5.2 | 0.00 | 0.00 | 0.00 | 46 | 1014.9 |
| 20260905175539 | 99 | 325 | 0.0 | 3.5 | 0.00 | 0.00 | 0.00 | 49 | 1015.0 |
| 20260905175035 | 99 | 219 | 1.7 | 3.5 | 0.00 | 0.00 | 0.00 | 47 | 1014.9 |
| 20260905174530 | 99 | 26 | 1.7 | 3.5 | 0.00 | 0.00 | 0.00 | 47 | 1015.0 |
| 20260905174026 | 99 | 281 | 1.7 | 3.5 | 0.00 | 0.00 | 0.00 | 48 | 1014.9 |
| 20260905173522 | 97 | 347 | 0.0 | 2.6 | 0.00 | 0.00 | 0.00 | 48 | 1015.0 |
| 20260905173017 | 98 | 51 | 2.6 | 3.5 | 0.00 | 0.00 | 0.00 | 47 | 1015.1 |
| 20260905172515 | 98 | 314 | 2.6 | 3.5 | 0.00 | 0.00 | 0.00 | 48 | 1014.9 |
| 20260905172011 | 98 | 17 | 1.7 | 2.6 | 0.00 | 0.00 | 0.00 | 48 | 1015.2 |
| 20260905171508 | 97 | 19 | 2.6 | 3.5 | 0.00 | 0.00 | 0.00 | 48 | 1015.3 |
| 20260905171004 | 98 | 294 | 1.7 | 3.5 | 0.00 | 0.00 | 0.00 | 48 | 1015.2 |
| 20260905170500 | 97 | 357 | 0.9 | 0.9 | 0.00 | 0.00 | 0.00 | 49 | 1015.3 |
| 20260905170000 | 96 | 337 | 0.0 | 1.7 | 0.00 | 0.00 | 0.00 | 50 | 1015.3 |
| 20260905165455 | 96 | 40 | 1.7 | 3.5 | 0.00 | 0.00 | 0.00 | 51 | 1015.5 |
| 20260905164950 | 96 | 27 | 0.9 | 2.6 | 0.00 | 0.00 | 0.00 | 50 | 1015.5 |
| 20260905164449 | 95 | 294 | 1.7 | 2.6 | 0.00 | 0.00 | 0.00 | 53 | 1015.5 |
| 20260905163944 | 95 | 37 | 1.7 | 5.2 | 0.00 | 0.00 | 0.00 | 53 | 1015.8 |
| 20260905163441 | 96 | 64 | 3.5 | 5.2 | 0.00 | 0.00 | 0.00 | 51 | 1015.7 |
| 20260905162937 | 94 | 214 | 1.7 | 2.6 | 0.00 | 0.00 | 0.00 | 53 | 1015.8 |
| 20260905162432 | 95 | 319 | 0.9 | 2.6 | 0.00 | 0.00 | 0.00 | 53 | 1015.6 |
| 20260905161927 | 94 | 271 | 3.5 | 3.5 | 0.00 | 0.00 | 0.00 | 54 | 1015.8 |
| 20260905161426 | 94 | 36 | 1.7 | 2.6 | 0.00 | 0.00 | 0.00 | 55 | 1015.8 |
| 20260905160924 | 93 | 306 | 0.9 | 1.7 | 0.00 | 0.00 | 0.00 | 54 | 1015.9 |
| 20260905160419 | 93 | 45 | 1.7 | 3.5 | 0.00 | 0.00 | 0.00 | 55 | 1015.9 |
| 20260905155918 | 93 | 249 | 2.6 | 5.2 | 0.00 | 0.00 | 0.00 | 55 | 1016.1 |
| 20260905155418 | 93 | 308 | 0.9 | 1.7 | 0.00 | 0.00 | 0.00 | 55 | 1016.0 |
| 20260905154917 | 92 | 47 | 2.6 | 3.5 | 0.00 | 0.00 | 0.00 | 56 | 1016.0 |
| 20260905154413 | 92 | 271 | 1.7 | 3.5 | 0.00 | 0.00 | 0.00 | 57 | 1016.0 |
| 20260905153908 | 92 | 237 | 0.9 | 3.5 | 0.00 | 0.00 | 0.00 | 57 | 1016.1 |
| 20260905153404 | 92 | 225 | 1.7 | 2.6 | 0.00 | 0.00 | 0.00 | 58 | 1015.8 |
| 20260905152904 | 92 | 247 | 1.7 | 2.6 | 0.00 | 0.00 | 0.00 | 58 | 1016.0 |
| 20260905152403 | 92 | 268 | 0.9 | 2.6 | 0.00 | 0.00 | 0.00 | 58 | 1016.0 |
| 20260905151858 | 92 | 300 | 1.7 | 1.7 | 0.00 | 0.00 | 0.00 | 59 | 1015.8 |
| 20260905151355 | 92 | 281 | 1.7 | 2.6 | 0.00 | 0.00 | 0.00 | 58 | 1015.9 |
| 20260905150855 | 92 | 303 | 0.9 | 6.1 | 0.00 | 0.00 | 0.00 | 58 | 1015.9 |
| 20260905150354 | 91 | 64 | 0.0 | 1.7 | 0.00 | 0.00 | 0.00 | 61 | 1016.0 |
| 20260905145851 | 90 | 345 | 1.7 | 3.5 | 0.00 | 0.00 | 0.00 | 61 | 1015.9 |
| 20260905145346 | 90 | 236 | 1.7 | 2.6 | 0.00 | 0.00 | 0.00 | 63 | 1015.9 |
| 20260905144845 | 89 | 60 | 0.0 | 1.7 | 0.00 | 0.00 | 0.00 | 63 | 1015.9 |
| 20260905144341 | 89 | 215 | 0.9 | 1.7 | 0.00 | 0.00 | 0.00 | 64 | 1016.0 |
| 20260905143839 | 88 | 282 | 1.7 | 2.6 | 0.00 | 0.00 | 0.00 | 65 | 1015.8 |
| 20260905143334 | 88 | 286 | 1.7 | 2.6 | 0.00 | 0.00 | 0.00 | 65 | 1015.8 |
| 20260905142833 | 87 | 19 | 0.0 | 0.9 | 0.00 | 0.00 | 0.00 | 66 | 1016.0 |
| 20260905142327 | 87 | 317 | 0.0 | 0.9 | 0.00 | 0.00 | 0.00 | 68 | 1016.1 |
| 20260905141823 | 86 | 223 | 0.9 | 1.7 | 0.00 | 0.00 | 0.00 | 69 | 1016.0 |
| 20260905141324 | 85 | 324 | 0.0 | 1.7 | 0.00 | 0.00 | 0.00 | 70 | 1016.0 |
| 20260905140819 | 85 | 279 | 0.9 | 1.7 | 0.00 | 0.00 | 0.00 | 69 | 1016.0 |
| 20260905140319 | 85 | 242 | 0.9 | 1.7 | 0.00 | 0.00 | 0.00 | 70 | 1015.9 |
| 20260905135818 | 85 | 75 | 0.0 | 1.7 | 0.00 | 0.00 | 0.00 | 69 | 1015.9 |
| 20260905135314 | 85 | 23 | 0.9 | 1.7 | 0.00 | 0.00 | 0.00 | 70 | 1015.9 |
| 20260905134810 | 85 | 208 | 3.5 | 3.5 | 0.00 | 0.00 | 0.00 | 69 | 1016.1 |
| 20260905134308 | 85 | 260 | 0.9 | 0.9 | 0.00 | 0.00 | 0.00 | 70 | 1015.9 |
| 20260905133808 | 85 | 279 | 0.9 | 1.7 | 0.00 | 0.00 | 0.00 | 70 | 1015.9 |
| 20260905133304 | 85 | 192 | 0.9 | 1.7 | 0.00 | 0.00 | 0.00 | 70 | 1016.1 |
| 20260905132802 | 85 | 357 | 0.0 | 0.9 | 0.00 | 0.00 | 0.00 | 71 | 1016.0 |
| 20260905132258 | 84 | 307 | 0.0 | 0.9 | 0.00 | 0.00 | 0.00 | 74 | 1015.9 |
| 20260905131753 | 83 | 339 | 0.0 | 0.9 | 0.00 | 0.00 | 0.00 | 74 | 1015.8 |
| 20260905131248 | 83 | 217 | 0.9 | 0.9 | 0.00 | 0.00 | 0.00 | 75 | 1015.7 |